Wind_Speed
8 8 10 11 12 14 17 19 22 25 27 28 29 31 33 35 36 40 41 41 42 44 45 48 50 53 54 57 59 61 66 66 66 69 71 73 72 68 70 70 67 62 61 59 61
6 4 8 12 12 14 17 21 25 29 31 33 34 34 36 39 43 46 47 46 48 48 51 54 56 56 58 60 65 66 68 68 70 73 75 74 76 75 71 71 70 68 64 63 60
5 4 8 12 14 16 19 24 28 31 33 35 36 38 41 44 48 47 48 51 53 57 58 60 62 64 66 68 67 68 70 72 75 78 80 80 82 83 81 76 75 71 69 67 64
6 6 9 12 17 19 22 25 29 31 34 37 40 42 46 48 50 51 54 56 59 62 66 66 68 71 73 73 73 74 76 75 75 78 81 83 86 87 88 87 81 77 72 71 68
8 8 10 14 17 22 25 27 30 33 37 40 43 46 49 51 53 55 58 62 63 66 69 71 75 76 78 77 79 79 77 73 70 68 70 77 81 86 90 87 88 85 77 74 76
9 11 14 16 19 24 28 30 33 37 39 44 47 48 50 53 55 60 63 65 68 71 74 76 78 78 79 81 81 78 69 58 45 39 44 48 48 61 67 74 86 90 87 78 80
11 12 15 19 22 25 29 32 36 40 43 45 46 48 53 56 60 62 65 69 72 76 78 78 81 82 84 82 74 60 47 35 30 39 41 36 23 34 42 61 72 82 92 86 84
12 14 17 20 22 25 30 33 37 40 42 45 49 52 57 59 62 66 70 71 74 78 80 82 84 85 81 71 51 41 36 33 32 41 42 42 24 29 35 42 49 65 80 93 89
13 15 18 20 22 27 30 33 36 41 45 46 52 56 60 63 64 67 72 74 79 82 83 84 87 85 73 51 36 35 35 35 35 42 48 51 44 36 40 42 42 41 62 84 94
14 17 18 18 23 25 30 35 39 41 46 51 55 60 63 66 67 71 75 78 79 83 87 87 86 73 52 37 34 34 38 39 41 45 46 51 48 39 42 39 41 38 38 64 94
14 16 16 20 22 28 33 38 41 45 50 56 59 61 64 66 69 72 75 78 82 86 87 86 76 58 38 35 38 40 43 43 41 41 43 35 29 25 33 37 34 30 27 52 86
14 13 17 21 26 29 34 38 42 48 53 55 59 61 65 68 71 73 78 81 83 84 85 83 63 45 34 37 38 38 42 41 39 36 32 23 22 24 26 30 28 24 19 29 72
13 14 18 22 26 30 34 40 46 51 54 56 60 61 66 70 72 75 78 80 82 84 85 75 53 33 34 38 39 36 42 42 34 25 25 24 25 25 28 30 27 26 22 16 52
12 16 19 25 28 32 38 44 51 53 53 56 59 62 65 69 72 73 77 81 83 82 81 63 44 31 37 39 39 38 34 32 28 23 22 23 24 22 24 26 24 28 30 23 29
13 17 22 27 31 37 41 47 49 51 53 55 59 63 66 68 70 72 78 81 83 81 76 57 37 30 34 36 36 34 35 32 29 33 30 29 29 24 20 23 29 33 36 29 24
15 18 24 28 33 36 40 44 49 51 53 55 59 61 63 67 71 74 77 81 82 71 62 46 31 31 33 34 35 33 33 34 37 36 33 33 34 28 25 23 25 29 35 38 29
16 22 25 30 32 36 42 46 50 51 54 58 58 60 65 68 71 75 78 79 79 76 57 44 30 31 33 30 31 35 37 40 41 42 35 35 34 33 31 31 32 31 26 29 35
21 23 27 30 33 39 44 47 50 52 54 57 58 61 64 69 72 74 78 79 81 76 53 37 31 30 34 34 36 38 39 41 45 47 45 40 39 34 35 35 35 31 28 19 26
20 24 28 31 36 41 45 48 50 53 56 57 59 62 64 68 71 74 78 79 79 77 51 35 27 32 35 36 38 39 41 41 46 50 51 41 37 39 39 34 30 34 25 25 27
20 25 28 32 38 42 46 48 51 55 56 57 59 62 64 67 69 74 78 78 77 72 52 35 24 30 33 35 39 41 44 44 47 53 52 42 37 39 44 36 29 30 22 17 34
21 26 29 34 39 42 47 49 52 55 56 57 59 62 63 65 70 73 76 77 76 67 51 38 24 27 32 34 39 42 46 46 49 51 48 48 39 39 43 42 29 35 32 13 12
22 28 31 35 40 45 49 51 53 56 56 57 58 62 63 66 68 72 75 76 76 69 52 38 26 26 30 33 39 41 44 48 52 48 41 43 39 38 42 36 25 26 30 25 20
26 29 31 36 41 46 49 52 53 56 56 57 58 60 62 64 67 72 74 75 74 66 52 40 33 25 31 35 36 40 46 47 49 45 40 43 37 38 35 32 23 23 19 13 17
27 29 31 35 41 46 49 52 54 55 55 56 58 60 61 62 67 70 72 74 72 67 53 39 34 28 30 33 36 39 41 45 47 46 41 44 39 39 25 24 28 17 17 12 12
28 28 33 38 41 45 48 53 54 53 54 56 57 59 60 62 64 68 71 73 71 66 55 39 33 25 29 32 33 36 38 43 46 47 45 42 41 38 34 27 24 23 19 8 13
28 30 34 37 40 44 49 52 52 52 53 55 56 57 59 60 63 66 68 71 71 67 51 39 31 25 26 29 31 32 35 37 45 41 44 42 38 36 36 29 16 36 22 11 19
28 31 34 37 41 44 50 52 52 51 52 53 54 55 57 59 62 64 67 69 70 68 55 42 30 24 23 25 27 31 30 35 41 38 40 39 38 33 28 17 15 31 31 22 18
Wind_Direction
24 53 34 35 32 17 6 6 3 2 360 356 353 349 347 341 338 336 333 328 327 325 321 317 313 309 306 302 297 293 290 290 284 280 277 275 271 263 262 260 256 253 248 238 236
14 38 16 8 11 4 359 353 349 353 351 351 347 344 342 337 336 334 330 326 325 324 324 321 315 310 305 302 298 296 294 290 284 280 277 273 270 267 260 257 255 252 246 243 232
348 9 359 352 351 350 351 349 346 346 346 344 340 336 338 337 335 333 329 327 328 329 326 321 317 313 309 306 305 300 295 290 283 277 273 268 264 262 260 253 251 247 244 238 233
327 323 327 337 339 342 346 344 343 342 341 340 338 338 338 337 335 333 331 332 332 330 324 322 319 315 313 310 306 302 296 288 282 274 270 264 261 257 256 253 243 241 239 236 230
308 319 321 327 332 340 344 340 341 338 338 336 338 338 337 334 333 334 335 334 332 328 325 322 319 318 316 313 310 304 299 290 282 275 269 263 259 257 254 250 245 236 231 227 227
303 302 310 314 322 336 339 336 337 334 336 337 337 337 335 335 336 338 336 334 332 328 326 325 324 322 321 316 310 304 298 293 290 282 278 275 273 267 260 256 246 238 229 222 220
300 305 308 314 322 328 333 335 337 334 336 337 338 338 338 339 340 338 335 335 333 330 328 329 327 326 323 317 312 307 304 297 290 287 286 291 292 274 269 263 257 243 229 221 212
310 302 308 322 327 330 329 335 338 336 337 340 339 340 340 341 339 338 338 334 332 332 334 332 330 329 324 320 314 313 308 305 294 291 290 292 296 282 277 276 266 258 237 222 212
305 303 310 324 327 330 331 337 339 338 340 341 342 343 342 341 341 338 337 336 336 336 335 335 334 329 325 323 323 315 310 307 299 290 291 289 297 285 280 285 291 270 245 224 215
304 308 317 325 329 328 336 336 337 339 339 342 343 343 344 343 340 339 339 339 339 338 339 338 333 331 327 329 328 321 313 309 301 296 288 286 287 283 274 288 292 285 239 225 213
305 315 320 325 327 327 333 337 338 339 340 342 343 346 343 342 341 341 341 342 341 342 340 337 334 334 330 331 329 323 317 315 316 311 307 307 294 274 286 290 296 301 256 223 209
314 319 324 328 326 332 336 338 342 341 341 342 344 345 342 343 342 342 344 343 342 343 340 338 338 336 335 334 331 321 319 324 326 319 320 313 301 292 287 283 293 309 304 234 210
316 322 327 332 331 336 337 337 340 340 340 341 344 344 344 343 343 345 345 343 345 344 342 339 342 339 336 334 332 328 332 334 338 346 332 331 314 295 281 282 286 295 303 277 215
317 327 330 331 335 335 339 342 340 338 340 344 344 346 345 344 345 348 346 346 347 347 343 342 345 343 338 334 337 336 344 345 343 340 337 328 321 305 281 275 275 284 288 286 233
325 328 328 331 334 338 341 342 341 341 344 344 347 347 345 346 347 350 349 350 346 347 344 346 345 341 335 335 341 346 343 344 347 351 345 334 330 333 307 279 273 274 277 276 261
323 329 330 333 336 338 340 343 344 345 348 347 349 348 346 346 350 350 351 351 350 348 345 344 346 348 340 343 348 348 353 345 359 0 354 346 336 336 316 303 295 281 270 267 255
330 333 334 338 339 341 342 345 345 349 349 349 349 348 349 350 352 351 352 351 351 350 348 342 346 349 347 350 349 353 354 357 359 1 7 348 341 333 334 325 325 306 276 255 255
328 333 336 339 340 341 343 345 348 349 352 350 349 349 349 352 353 353 354 353 352 350 351 348 347 351 348 349 351 352 357 1 354 354 358 353 339 343 346 339 329 314 297 255 249
326 332 336 340 340 340 345 347 348 351 351 351 349 351 351 352 353 354 354 354 353 352 352 356 346 350 350 350 352 353 1 360 357 359 358 357 347 352 347 338 327 321 301 261 248
326 330 335 337 335 339 346 348 349 352 351 351 350 351 352 353 355 355 355 355 353 353 351 357 354 354 351 348 353 353 0 359 6 360 351 360 350 356 348 355 350 339 325 286 249
325 328 332 335 338 344 348 349 350 352 352 352 351 351 352 355 356 355 355 355 354 354 350 356 354 351 350 349 355 357 358 2 7 1 345 345 350 355 353 355 352 354 5 353 267
321 327 332 334 338 341 347 348 350 352 352 352 351 351 353 355 356 355 356 356 355 356 352 354 357 357 352 356 359 359 360 4 7 360 347 351 1 354 349 344 359 0 4 18 23
318 324 330 331 333 340 346 346 349 352 352 352 352 351 353 356 356 355 357 356 356 355 353 351 354 355 357 1 1 1 2 5 5 358 357 356 5 360 354 348 354 1 14 32 41
318 326 329 332 335 340 345 345 348 352 351 352 351 351 354 356 356 357 357 356 356 357 354 353 350 349 357 357 3 1 357 4 3 360 8 8 13 6 25 12 15 26 11 25 69
320 326 328 333 336 339 343 345 348 351 351 351 350 350 354 356 356 357 356 355 356 359 354 352 350 347 351 357 0 2 4 5 5 2 9 18 6 11 29 25 37 55 20 66 40
322 326 329 332 337 341 342 344 348 350 350 350 348 350 352 355 355 356 356 357 356 359 356 350 350 345 348 352 356 6 9 8 8 6 10 18 23 22 24 24 57 51 52 33 67
318 325 327 330 337 340 341 343 347 348 350 349 348 349 352 354 354 355 355 356 356 359 0 349 346 344 341 347 357 5 9 12 10 7 9 15 24 33 34 22 49 22 32 40 86
Height
5844 5843 5842 5841 5840 5838 5836 5834 5832 5829 5825 5822 5818 5815 5811 5806 5804 5799 5794 5789 5784 5779 5772 5765 5759 5751 5745 5737 5728 5720 5714 5710 5703 5698 5693 5690 5690 5695 5699 5701 5705 5708 5717 5724 5728
5844 5843 5842 5840 5838 5837 5834 5832 5829 5825 5822 5818 5815 5811 5807 5802 5797 5792 5787 5780 5773 5767 5760 5753 5745 5736 5726 5718 5710 5701 5695 5687 5679 5673 5669 5669 5665 5667 5675 5679 5686 5691 5699 5706 5716
5843 5842 5841 5839 5837 5835 5832 5829 5826 5823 5819 5815 5811 5807 5802 5796 5791 5784 5777 5769 5762 5754 5746 5737 5730 5721 5710 5698 5687 5678 5671 5663 5652 5644 5640 5641 5639 5638 5644 5655 5660 5670 5676 5686 5695
5841 5841 5840 5838 5836 5833 5830 5827 5824 5820 5816 5811 5806 5801 5795 5789 5783 5774 5767 5758 5748 5739 5731 5722 5711 5700 5689 5677 5667 5654 5641 5631 5625 5614 5608 5608 5608 5612 5616 5622 5631 5644 5656 5664 5677
5840 5839 5838 5836 5834 5831 5828 5825 5820 5816 5812 5807 5801 5795 5788 5781 5773 5765 5755 5745 5736 5725 5715 5704 5693 5679 5665 5654 5639 5625 5614 5600 5591 5583 5578 5573 5579 5578 5586 5586 5592 5611 5627 5639 5650
5839 5837 5836 5834 5832 5829 5825 5821 5816 5812 5807 5802 5795 5789 5781 5774 5763 5753 5743 5733 5722 5710 5696 5682 5670 5658 5645 5630 5614 5598 5584 5573 5569 5561 5553 5552 5563 5550 5554 5552 5561 5577 5597 5613 5624
5837 5836 5834 5831 5829 5826 5822 5817 5812 5807 5802 5795 5788 5781 5772 5764 5752 5742 5730 5720 5707 5694 5680 5664 5649 5635 5617 5600 5584 5571 5565 5560 5557 5548 5543 5543 5548 5538 5534 5529 5533 5543 5564 5584 5603
5835 5833 5831 5829 5826 5823 5818 5813 5808 5802 5796 5789 5781 5773 5763 5752 5742 5731 5717 5702 5690 5674 5660 5644 5629 5613 5594 5577 5565 5558 5551 5550 5546 5537 5532 5530 5537 5529 5521 5514 5513 5518 5533 5556 5575
5832 5830 5828 5826 5823 5819 5814 5809 5805 5798 5790 5782 5774 5764 5754 5742 5730 5719 5707 5694 5674 5658 5644 5626 5608 5589 5571 5562 5556 5549 5545 5541 5537 5526 5519 5513 5516 5516 5506 5500 5498 5494 5500 5526 5549
5829 5827 5825 5823 5820 5815 5811 5805 5800 5793 5784 5776 5766 5757 5745 5734 5722 5708 5692 5677 5662 5643 5627 5608 5590 5571 5558 5552 5549 5544 5537 5531 5523 5517 5508 5499 5498 5498 5490 5487 5482 5475 5475 5491 5519
5826 5825 5822 5819 5816 5812 5807 5800 5796 5788 5778 5769 5758 5747 5738 5728 5713 5699 5684 5664 5646 5628 5613 5595 5576 5562 5552 5547 5541 5534 5525 5517 5511 5500 5490 5487 5483 5483 5479 5473 5469 5462 5460 5467 5490
5824 5822 5820 5817 5813 5808 5803 5796 5790 5783 5773 5763 5752 5741 5731 5719 5705 5690 5671 5657 5640 5623 5602 5584 5566 5555 5547 5542 5536 5524 5515 5510 5504 5491 5483 5479 5475 5472 5469 5464 5459 5453 5450 5451 5466
5821 5819 5817 5814 5809 5804 5799 5792 5784 5776 5767 5756 5745 5734 5722 5709 5695 5679 5663 5648 5633 5613 5592 5572 5559 5550 5544 5538 5530 5519 5510 5501 5491 5486 5478 5473 5468 5463 5459 5454 5449 5444 5442 5440 5443
5818 5816 5813 5809 5806 5800 5793 5786 5778 5770 5759 5749 5738 5726 5714 5699 5685 5670 5652 5637 5619 5605 5581 5565 5553 5547 5539 5531 5524 5517 5507 5496 5487 5481 5475 5468 5462 5456 5451 5447 5441 5436 5433 5433 5428
5816 5813 5809 5805 5800 5794 5789 5781 5773 5764 5754 5744 5732 5719 5705 5694 5679 5662 5645 5626 5603 5591 5575 5561 5550 5546 5538 5529 5521 5512 5502 5493 5485 5474 5467 5459 5453 5447 5441 5438 5433 5428 5422 5421 5420
5813 5810 5806 5802 5796 5790 5784 5776 5768 5758 5746 5737 5724 5714 5702 5687 5670 5655 5640 5622 5601 5578 5561 5553 5548 5543 5534 5524 5516 5508 5499 5490 5479 5470 5461 5453 5444 5440 5432 5427 5422 5417 5411 5407 5408
5810 5807 5803 5798 5792 5786 5779 5771 5763 5751 5742 5731 5720 5708 5694 5680 5664 5648 5635 5621 5605 5591 5568 5550 5546 5540 5532 5524 5514 5504 5497 5485 5477 5466 5457 5446 5437 5430 5422 5416 5410 5403 5398 5395 5394
5807 5804 5799 5794 5788 5782 5775 5767 5758 5747 5736 5725 5714 5701 5687 5673 5659 5643 5628 5611 5594 5575 5561 5550 5542 5538 5528 5520 5510 5500 5488 5477 5466 5456 5450 5442 5432 5424 5415 5407 5400 5391 5385 5384 5384
5804 5800 5795 5789 5783 5777 5770 5761 5751 5742 5731 5720 5708 5695 5682 5667 5653 5638 5623 5606 5590 5571 5557 5549 5540 5533 5525 5517 5507 5497 5486 5478 5465 5454 5444 5438 5428 5419 5411 5402 5392 5382 5375 5372 5373
5801 5796 5791 5785 5779 5772 5766 5756 5746 5736 5725 5715 5702 5691 5678 5663 5650 5633 5619 5604 5586 5568 5552 5548 5540 5533 5524 5515 5504 5495 5485 5475 5462 5449 5441 5434 5423 5415 5408 5398 5388 5376 5366 5362 5360
5798 5792 5787 5782 5775 5768 5760 5751 5741 5730 5720 5709 5698 5686 5673 5659 5644 5631 5617 5603 5585 5568 5552 5545 5538 5533 5523 5515 5503 5495 5485 5473 5461 5453 5441 5427 5422 5411 5400 5391 5382 5373 5363 5354 5351
5793 5788 5783 5777 5771 5763 5754 5744 5736 5725 5715 5705 5693 5681 5668 5655 5642 5627 5612 5597 5582 5566 5554 5544 5538 5532 5525 5514 5503 5495 5484 5471 5461 5457 5445 5432 5423 5410 5400 5392 5383 5375 5368 5359 5353
5788 5784 5779 5773 5765 5758 5750 5740 5731 5721 5711 5700 5688 5676 5663 5651 5639 5624 5610 5595 5581 5565 5553 5543 5537 5532 5524 5514 5505 5496 5485 5473 5463 5457 5446 5434 5426 5414 5405 5394 5386 5381 5371 5364 5360
5783 5779 5775 5768 5761 5753 5744 5735 5726 5717 5707 5696 5685 5673 5661 5649 5635 5622 5609 5596 5581 5564 5550 5541 5534 5529 5523 5515 5506 5498 5487 5476 5466 5458 5450 5439 5428 5420 5410 5399 5394 5387 5381 5373 5371
5778 5774 5768 5761 5756 5748 5740 5730 5721 5712 5703 5691 5680 5670 5659 5647 5635 5622 5608 5592 5576 5563 5551 5542 5534 5529 5524 5516 5508 5500 5490 5479 5471 5462 5453 5446 5433 5422 5413 5407 5402 5397 5393 5388 5383
5772 5768 5763 5757 5751 5743 5735 5726 5717 5708 5698 5687 5676 5665 5654 5643 5633 5622 5609 5594 5580 5562 5549 5538 5534 5527 5523 5517 5510 5503 5494 5484 5475 5467 5458 5450 5441 5430 5423 5418 5410 5408 5406 5401 5398
5766 5762 5757 5752 5746 5738 5729 5721 5713 5703 5694 5683 5674 5662 5651 5641 5630 5619 5606 5594 5579 5565 5553 5541 5535 5530 5523 5518 5511 5505 5497 5488 5480 5473 5463 5456 5449 5441 5435 5429 5423 5419 5414 5410 5407